Temperature
16 16 15 15 15 15 15 15 15 15 15 15 15 15 15 15 15 15 15 15 15 15 15 15 15 15 15 15 15 15 15 15 15 15 15 15 15 15 15 15 15 15 15
15 15 15 15 15 15 15 15 15 15 15 15 15 15 15 15 15 15 15 15 15 15 15 15 15 15 15 15 15 15 15 15 15 15 15 15 15 15 15 15 15 15 15
15 15 15 15 15 15 15 15 15 15 15 15 15 15 15 15 15 15 15 15 15 15 15 15 15 15 15 15 15 15 14 14 14 14 14 14 14 14 14 14 14 14 14
15 15 15 15 15 15 15 15 15 15 15 15 15 15 15 15 15 15 15 15 15 15 14 14 14 14 15 15 15 15 14 14 14 14 14 14 14 14 14 14 14 14 14
15 15 15 15 15 15 15 15 15 15 15 15 15 15 15 15 14 14 15 14 14 14 14 14 14 14 14 14 14 14 14 14 14 14 14 14 14 14 14 14 14 14 14
15 15 15 15 15 15 15 15 15 15 15 15 15 15 15 14 14 14 14 14 14 14 14 14 14 14 14 14 14 14 14 14 14 14 14 14 14 14 14 14 14 14 14
15 15 15 15 15 15 15 15 15 15 15 15 15 14 14 14 14 14 14 14 14 14 14 14 14 14 14 14 14 14 14 14 14 14 14 14 14 13 13 13 13 13 13
14 14 15 15 14 14 14 14 14 14 14 14 14 14 14 14 14 14 14 14 14 14 14 14 14 14 14 14 14 14 14 14 13 13 13 13 13 13 13 13 13 13 13
14 14 14 14 14 14 14 14 14 14 14 14 14 14 14 14 14 14 14 14 14 14 14 14 13 13 13 13 13 13 13 13 13 13 13 13 13 13 13 13 13 13 13
14 14 14 14 14 14 14 14 14 14 14 14 14 14 14 14 14 13 13 13 13 13 13 13 13 13 13 13 13 13 13 13 13 13 13 13 13 13 13 12 12 12 12
14 14 14 14 14 14 14 14 14 14 14 14 13 14 14 13 13 13 13 13 13 13 13 13 13 13 13 13 13 13 13 13 13 13 13 13 13 12 12 12 12 12 12
14 14 14 14 14 14 14 14 14 14 13 13 13 13 13 13 13 13 13 13 13 13 13 13 13 13 13 13 13 13 13 13 13 13 13 12 12 12 12 12 12 12 12
14 14 13 13 13 13 13 13 13 13 13 13 13 13 13 13 13 13 13 13 13 13 13 13 13 13 13 12 13 13 13 12 12 12 12 12 12 12 12 12 12 12 12
14 13 13 13 13 13 13 13 13 13 13 13 13 13 13 13 13 13 13 13 12 12 12 12 12 12 12 12 12 12 12 12 12 12 12 12 12 12 12 12 12 12 12
13 13 13 13 13 13 13 13 13 13 13 13 13 13 13 13 12 13 13 13 12 12 12 12 12 12 12 12 12 12 12 12 12 12 12 12 12 12 12 12 12 12 12
13 13 13 13 13 13 13 13 13 13 12 12 12 12 12 12 12 12 12 12 12 12 12 12 12 12 12 12 12 12 12 12 12 12 12 12 12 12 12 12 11 11 11
13 13 13 13 13 12 12 12 12 12 12 12 12 12 12 12 12 12 12 12 12 12 12 12 12 11 11 11 12 12 12 12 12 12 12 11 11 11 11 11 11 11 11
13 13 12 12 12 12 12 12 12 12 12 12 12 12 12 12 12 12 12 11 12 11 11 11 11 11 11 11 11 11 11 11 11 11 11 11 11 11 11 11 11 11 11
12 12 12 12 12 12 12 12 12 11 11 11 11 11 11 11 11 11 11 11 11 11 11 11 11 11 11 11 11 11 11 11 11 11 11 11 11 11 11 11 11 11 11
12 12 12 12 11 11 11 11 11 11 11 11 11 11 11 11 11 11 11 11 11 11 11 10 10 10 10 10 10 11 11 11 11 11 11 11 11 11 11 11 11 10 10
11 11 11 11 11 11 11 11 11 11 11 11 10 10 10 11 11 11 11 11 11 10 10 10 10 10 10 10 10 10 10 10 10 10 10 10 10 10 10 10 10 10 10
11 11 11 11 11 10 10 10 10 10 10 10 10 10 10 10 10 10 10 10 10 10 10 10 10 10 10 10 10 10 10 10 10 10 10 10 10 10 10 10 10 10 10
10 10 10 10 10 10 10 10 10 10 10 10 10 10 10 10 10 10 10 10 10 10 10 10 10 10 10 10 10 9 9 9 9 9 9 10 10 10 10 10 10 10 10
10 10 10 10 10 10 10 10 9 9 10 10 10 9 9 10 9 9 9 9 9 9 9 9 9 9 9 9 9 9 9 9 9 9 9 9 9 9 9 9 9 9 9
9 9 9 9 9 9 9 9 9 9 9 9 9 9 9 9 9 9 9 9 9 9 9 9 9 9 9 9 9 9 9 8 8 9 9 9 9 9 9 9 9 9 9
9 9 9 9 9 9 9 9 9 9 9 9 9 9 9 9 8 8 8 8 8 9 8 8 8 8 8 8 8 8 8 8 8 8 8 8 8 8 8 9 9 9 9
Wind_Speed
3 2 2 2 2 3 3 3 3 4 4 5 6 6 5 5 6 6 6 8 9 9 10 10 10 10 9 9 9 9 10 10 10 10 10 10 10 9 9 9 9 9 8
4 3 2 2 2 3 3 4 4 4 3 4 4 5 5 5 5 5 5 6 7 8 9 9 9 9 9 9 9 10 10 10 10 10 10 10 10 10 9 9 9 9 8
5 4 3 2 1 3 5 5 4 4 4 4 4 3 4 4 3 4 4 4 4 6 8 8 8 8 9 9 9 10 10 10 10 10 10 11 10 10 9 9 9 9 9
5 4 3 2 3 4 4 3 3 3 3 3 2 2 2 2 2 2 2 3 3 4 5 7 7 7 8 8 8 9 9 9 9 9 10 10 9 9 9 9 9 8 8
5 4 3 2 4 4 3 3 3 3 2 2 1 2 2 1 1 2 2 2 2 3 3 4 6 6 6 7 7 7 8 8 8 8 8 8 8 9 9 9 9 8 8
5 4 3 3 4 3 3 3 3 2 2 2 2 2 2 2 1 1 1 2 2 2 2 3 4 3 5 5 5 6 7 6 6 7 7 7 8 8 8 8 8 8 8
4 4 3 3 2 2 2 3 3 3 2 2 3 3 3 3 2 1 1 1 1 1 2 3 3 3 3 3 4 4 6 6 5 6 6 6 7 7 7 7 7 8 8
3 4 3 2 2 2 3 2 2 2 1 1 2 2 2 3 3 2 1 1 1 1 2 2 3 3 2 2 2 3 4 5 5 5 5 6 6 6 6 6 7 7 7
2 3 3 3 3 3 2 1 2 3 1 1 1 3 3 2 2 3 2 2 2 2 1 1 2 2 3 2 2 2 3 4 4 4 5 5 5 5 5 6 6 7 7
2 2 3 3 3 2 2 2 2 2 3 1 1 0 2 3 2 1 2 2 2 2 1 1 1 1 2 3 3 3 3 3 3 3 4 4 4 4 4 5 5 6 6
0 1 2 2 2 2 2 2 2 2 2 2 1 1 1 1 2 2 1 2 2 2 1 1 0 1 1 2 3 2 3 3 3 2 3 3 4 4 3 3 3 4 4
1 0 1 1 2 2 2 2 2 3 2 2 2 2 2 2 2 2 2 1 1 2 2 1 1 0 0 1 2 2 3 4 3 2 3 3 3 3 3 3 3 3 3
1 2 1 1 1 1 2 2 2 2 2 2 2 1 2 2 2 2 3 2 1 2 2 1 1 1 1 1 2 2 4 4 4 3 3 2 3 3 2 2 2 2 2
3 2 2 1 1 1 1 2 2 2 2 2 2 2 1 1 1 2 3 3 1 1 1 2 2 1 1 2 3 3 3 4 4 3 3 2 3 3 3 3 2 2 2
2 2 2 2 1 1 1 1 1 2 1 1 2 1 1 1 0 1 2 3 4 2 2 3 2 2 2 2 3 3 3 4 4 4 3 3 3 3 3 3 3 3 2
2 2 2 1 1 1 1 1 1 1 1 1 1 2 1 0 0 0 1 1 2 3 3 2 3 2 1 1 2 3 4 4 4 4 4 3 3 4 4 4 4 3 3
2 3 3 2 1 1 0 1 1 1 1 1 1 2 2 1 0 0 1 1 1 2 3 2 2 1 1 0 0 1 2 2 3 5 4 4 4 3 4 4 5 5 5
2 2 3 2 2 1 1 2 1 1 1 1 1 1 2 1 1 0 1 1 2 2 3 2 1 1 1 2 1 1 1 1 2 4 5 4 3 3 3 4 5 6 6
1 1 2 2 2 2 2 2 2 2 1 1 2 2 2 1 1 1 1 1 1 1 2 2 2 1 1 1 0 1 0 0 2 3 4 4 4 4 4 4 5 6 6
1 1 1 2 2 2 2 1 2 2 1 1 1 2 2 2 3 3 2 2 2 2 2 2 1 1 1 1 0 1 1 1 2 1 2 3 4 5 5 6 6 6 7
1 1 1 1 1 1 1 1 2 2 2 1 1 1 2 2 2 2 2 3 3 3 2 2 1 1 1 1 1 2 2 2 2 1 1 2 2 2 3 5 6 7 7
0 1 1 1 1 1 1 2 3 2 2 2 1 1 2 2 2 3 3 3 5 4 5 4 3 3 4 4 3 2 2 1 2 2 1 2 1 2 3 4 6 7 7
1 1 1 1 1 2 1 1 2 2 2 2 2 2 1 1 1 1 2 2 3 4 5 6 5 5 4 5 4 3 3 3 4 3 2 3 2 3 3 6 7 8 8
1 1 1 1 1 1 0 1 1 2 2 2 2 3 2 1 1 1 1 1 2 3 4 4 5 6 5 4 5 5 5 4 2 2 2 3 2 3 3 5 8 9 9
0 0 1 2 1 2 1 0 1 1 1 1 1 1 1 1 1 1 1 1 1 3 2 3 3 3 4 3 3 2 2 2 2 3 2 2 2 2 2 3 5 7 9
0 0 0 0 1 1 1 0 1 2 1 0 0 1 1 1 1 2 2 2 2 3 2 1 1 2 2 2 4 4 4 3 2 2 2 2 2 1 2 2 2 3 5
Wind_Direction
135 135 144 131 107 101 100 93 88 90 92 93 98 102 98 96 93 87 84 85 85 84 84 80 76 76 83 86 84 87 84 84 84 84 85 86 89 90 91 91 91 93 93
140 137 122 115 107 106 111 109 102 96 94 96 93 104 109 106 98 92 87 86 88 87 87 83 78 75 82 88 88 90 87 87 85 84 84 84 86 86 87 89 90 91 94
131 129 114 102 108 106 107 98 89 89 90 85 79 90 108 111 111 103 94 90 87 89 90 87 81 77 81 91 93 92 92 92 88 86 86 85 82 82 84 89 92 92 91
119 124 115 109 109 108 107 104 90 86 81 81 76 66 81 108 120 128 119 115 102 95 95 93 89 84 84 93 100 97 95 96 92 90 89 88 85 85 86 89 90 92 91
110 118 117 109 103 100 102 113 95 103 103 90 88 68 51 66 97 119 115 138 127 111 106 102 99 95 90 85 101 104 104 101 99 98 96 95 93 91 89 88 88 87 87
104 111 113 101 101 95 86 92 99 85 103 111 96 62 27 18 41 66 94 108 130 132 120 104 92 84 86 86 98 116 115 113 109 106 103 104 103 98 96 92 89 87 83
109 113 101 98 95 101 114 112 106 91 73 82 79 37 12 16 26 12 37 70 74 106 121 121 104 97 84 75 82 117 126 123 116 112 108 109 110 106 100 95 93 91 85
123 129 122 115 110 101 91 89 96 103 76 75 112 97 19 356 355 7 9 43 28 71 89 110 122 119 112 90 88 92 106 121 124 118 117 117 113 111 105 99 97 93 88
124 130 135 138 131 123 128 124 122 123 136 9 92 134 140 211 306 337 356 14 16 44 40 87 120 138 136 120 107 94 105 115 113 114 119 114 111 111 105 100 97 93 89
121 128 134 140 144 140 150 169 142 136 137 159 351 66 154 156 149 307 336 353 9 17 4 51 101 123 149 139 125 114 117 126 127 137 133 126 119 114 112 107 105 101 95
121 135 149 144 153 160 173 176 155 146 143 161 179 166 107 93 120 146 225 316 347 337 348 350 97 84 125 147 148 139 150 145 146 153 153 145 132 123 115 118 119 116 109
305 316 167 160 172 177 182 185 172 158 157 158 165 168 168 162 178 162 180 218 275 301 326 346 9 328 213 173 182 171 179 174 173 173 160 152 144 134 122 115 122 131 131
239 256 208 174 194 202 193 170 158 166 158 158 170 191 197 192 167 160 157 180 213 288 323 327 296 297 238 193 215 200 198 184 186 188 179 176 176 173 164 155 150 143 148
215 215 187 170 185 203 195 164 161 176 158 166 176 172 173 222 179 173 167 159 155 312 326 289 303 298 258 204 210 198 195 191 194 201 195 196 194 191 192 195 184 178 184
203 189 182 170 152 143 145 158 172 190 170 180 184 169 180 242 197 192 176 165 160 188 252 268 280 288 263 213 212 196 205 207 207 208 206 210 211 205 207 208 204 187 181
193 159 157 159 155 159 149 147 160 180 153 194 177 149 173 251 57 133 163 169 162 171 210 238 239 257 259 235 233 206 216 219 219 209 211 221 222 227 223 213 193 189 192
190 175 175 169 170 166 136 135 173 148 157 208 213 168 210 199 158 245 150 141 153 154 188 252 257 266 192 241 314 215 230 217 227 221 221 224 222 219 215 210 202 198 195
204 197 182 171 176 178 167 149 161 152 171 206 232 206 224 197 167 194 150 161 184 179 175 208 259 287 260 231 212 196 209 216 222 222 215 215 214 218 219 212 208 205 202
198 194 172 174 187 192 179 182 177 177 187 222 226 219 232 188 204 200 174 190 192 177 161 174 227 254 273 278 317 262 271 319 241 236 226 229 229 229 228 222 211 209 207
174 183 181 176 179 173 166 176 175 172 179 213 234 224 224 207 215 199 192 194 183 160 153 160 206 249 263 270 204 213 264 269 268 256 242 239 240 240 240 232 217 211 212
175 162 149 163 180 179 186 167 174 171 168 184 239 259 248 232 236 206 201 192 178 176 175 179 208 234 253 243 232 223 228 248 265 238 257 254 236 247 251 238 221 219 218
169 131 146 172 197 258 255 180 172 177 175 181 217 266 267 261 252 230 217 188 180 186 193 193 212 220 236 230 222 222 213 195 263 258 209 254 190 225 240 233 229 224 223
132 136 169 169 207 259 244 161 154 164 173 196 213 228 261 268 230 237 240 227 212 203 192 192 201 222 225 223 207 212 213 206 226 232 184 245 234 237 240 231 226 226 227
170 197 212 217 215 273 221 178 171 162 169 204 216 211 211 257 254 193 207 234 243 244 230 214 209 222 223 216 208 208 211 223 249 245 182 226 233 238 248 241 231 225 230
42 245 214 212 228 275 282 197 140 166 179 220 223 197 196 217 253 199 169 234 272 281 268 236 233 238 236 220 185 167 173 187 251 254 216 212 230 238 251 246 243 234 235
29 348 349 253 213 260 303 273 149 154 158 226 299 282 249 259 253 204 187 198 241 264 270 275 291 301 274 238 200 190 191 195 220 246 229 202 216 186 266 263 249 253 243
Height
1529 1529 1530 1530 1530 1530 1530 1530 1530 1529 1529 1529 1529 1529 1529 1528 1528 1527 1527 1527 1526 1525 1524 1523 1522 1521 1521 1520 1520 1520 1519 1519 1519 1519 1519 1519 1519 1519 1520 1520 1521 1521 1521
1530 1530 1530 1531 1531 1531 1531 1531 1531 1530 1530 1530 1530 1530 1530 1530 1529 1529 1528 1528 1527 1526 1525 1524 1523 1522 1522 1521 1521 1521 1521 1520 1520 1520 1520 1520 1520 1521 1521 1521 1521 1522 1522
1530 1530 1530 1531 1531 1531 1531 1531 1531 1531 1531 1531 1531 1531 1531 1531 1530 1530 1529 1529 1528 1527 1527 1526 1525 1523 1523 1522 1522 1522 1522 1522 1522 1522 1522 1522 1522 1522 1522 1522 1522 1522 1522
1530 1530 1530 1531 1531 1531 1531 1531 1531 1531 1531 1531 1531 1531 1531 1531 1531 1531 1530 1530 1529 1529 1528 1527 1526 1525 1524 1523 1523 1523 1523 1523 1523 1523 1523 1523 1523 1523 1523 1523 1523 1523 1523
1530 1530 1530 1530 1531 1531 1531 1531 1531 1531 1531 1531 1532 1532 1532 1532 1532 1531 1531 1531 1530 1530 1529 1528 1527 1526 1525 1525 1524 1524 1524 1524 1524 1524 1524 1524 1524 1524 1524 1524 1524 1524 1524
1529 1529 1530 1530 1530 1530 1530 1530 1531 1531 1531 1531 1531 1532 1532 1532 1532 1532 1532 1531 1531 1530 1530 1529 1528 1528 1527 1526 1526 1525 1525 1525 1525 1525 1525 1525 1525 1525 1525 1525 1525 1524 1524
1529 1529 1529 1529 1529 1529 1529 1530 1530 1530 1530 1531 1531 1531 1532 1532 1532 1532 1532 1532 1531 1531 1530 1530 1529 1529 1528 1527 1526 1526 1526 1525 1525 1526 1526 1526 1526 1526 1526 1526 1525 1525 1525
1528 1528 1528 1528 1528 1528 1528 1528 1529 1529 1529 1530 1530 1530 1531 1533 1532 1532 1532 1531 1531 1531 1531 1530 1530 1529 1529 1528 1527 1527 1526 1526 1526 1526 1526 1526 1526 1527 1527 1526 1526 1526 1526
1527 1527 1527 1527 1527 1527 1527 1528 1528 1528 1528 1529 1529 1530 1530 1530 1530 1531 1531 1531 1531 1530 1530 1530 1530 1529 1529 1528 1528 1527 1527 1526 1526 1527 1527 1527 1527 1527 1527 1527 1527 1527 1526
1526 1526 1526 1526 1526 1526 1526 1527 1527 1527 1528 1528 1528 1528 1529 1529 1529 1530 1530 1530 1530 1530 1529 1529 1529 1529 1529 1528 1528 1528 1527 1527 1527 1527 1527 1527 1527 1527 1528 1528 1527 1527 1527
1524 1525 1525 1525 1525 1525 1525 1525 1525 1526 1526 1527 1527 1527 1527 1528 1528 1528 1528 1529 1529 1529 1528 1528 1528 1528 1528 1528 1527 1527 1527 1527 1528 1528 1527 1528 1528 1528 1528 1528 1527 1527 1527
1523 1523 1523 1523 1523 1523 1523 1524 1524 1524 1524 1525 1525 1525 1525 1526 1526 1526 1526 1526 1527 1528 1528 1528 1527 1527 1527 1527 1527 1527 1527 1527 1527 1527 1527 1527 1527 1527 1527 1527 1527 1527 1527
1521 1521 1522 1522 1522 1522 1522 1522 1522 1523 1523 1523 1523 1523 1523 1524 1524 1524 1525 1525 1525 1526 1526 1526 1526 1526 1526 1526 1526 1526 1526 1526 1526 1526 1526 1526 1526 1526 1526 1526 1526 1526 1526
1520 1520 1520 1520 1520 1521 1520 1520 1521 1521 1521 1521 1521 1521 1521 1521 1522 1522 1523 1523 1523 1524 1524 1524 1524 1524 1524 1524 1525 1525 1525 1525 1525 1525 1525 1525 1525 1525 1525 1525 1525 1525 1525
1519 1519 1519 1519 1519 1519 1519 1519 1519 1519 1519 1519 1519 1519 1519 1519 1520 1520 1520 1521 1522 1521 1521 1522 1522 1522 1522 1523 1523 1523 1523 1523 1523 1523 1523 1523 1523 1523 1523 1523 1524 1523 1524
1517 1517 1517 1517 1517 1517 1517 1517 1517 1517 1516 1516 1516 1516 1516 1517 1517 1517 1518 1518 1519 1519 1519 1519 1520 1520 1520 1520 1520 1520 1521 1521 1521 1521 1521 1521 1521 1522 1522 1522 1522 1522 1522
1515 1515 1515 1515 1515 1515 1515 1514 1514 1514 1514 1514 1514 1514 1514 1514 1514 1515 1515 1516 1516 1517 1516 1517 1517 1518 1518 1518 1518 1518 1518 1518 1518 1518 1519 1519 1519 1519 1519 1519 1520 1520 1520
1513 1513 1513 1512 1512 1513 1513 1512 1512 1512 1511 1511 1511 1511 1511 1511 1511 1512 1513 1513 1513 1514 1514 1514 1514 1515 1515 1515 1515 1515 1515 1515 1516 1516 1516 1516 1516 1516 1517 1517 1517 1518 1518
1510 1510 1510 1510 1510 1510 1510 1509 1509 1509 1509 1509 1509 1508 1508 1508 1508 1509 1509 1510 1510 1511 1511 1511 1511 1512 1512 1512 1512 1512 1513 1513 1513 1513 1513 1513 1513 1513 1513 1514 1514 1515 1516
1507 1507 1508 1507 1507 1507 1507 1507 1506 1506 1506 1506 1506 1506 1506 1505 1506 1506 1506 1507 1507 1508 1508 1508 1508 1509 1509 1509 1509 1509 1509 1510 1510 1511 1510 1510 1510 1510 1510 1509 1510 1512 1513
1505 1505 1505 1504 1504 1504 1504 1504 1504 1503 1503 1503 1503 1503 1503 1503 1502 1503 1503 1503 1504 1505 1505 1505 1505 1506 1506 1506 1506 1506 1507 1507 1507 1508 1508 1508 1507 1507 1507 1506 1507 1509 1510
1502 1501 1501 1501 1501 1501 1501 1501 1501 1500 1500 1500 1500 1500 1499 1499 1499 1500 1500 1500 1501 1502 1502 1502 1502 1502 1502 1503 1503 1504 1504 1504 1504 1505 1505 1505 1505 1504 1504 1505 1506 1507 1508
1499 1498 1498 1498 1498 1497 1497 1497 1497 1497 1496 1496 1496 1496 1496 1496 1496 1496 1496 1497 1498 1498 1499 1499 1499 1499 1499 1500 1500 1500 1500 1500 1500 1502 1502 1501 1502 1501 1502 1503 1504 1504 1505
1496 1495 1495 1494 1494 1494 1494 1494 1494 1494 1493 1493 1493 1492 1492 1492 1492 1493 1493 1493 1494 1494 1495 1495 1496 1496 1496 1497 1497 1497 1497 1497 1498 1498 1499 1498 1498 1498 1499 1499 1500 1501 1502
1493 1492 1492 1492 1491 1491 1491 1491 1490 1490 1490 1489 1489 1489 1489 1489 1489 1489 1489 1489 1490 1490 1491 1491 1492 1492 1492 1492 1493 1493 1493 1493 1493 1494 1494 1494 1494 1494 1495 1496 1497 1498 1498
1490 1490 1489 1489 1488 1488 1488 1487 1487 1487 1486 1486 1486 1486 1486 1486 1486 1486 1486 1486 1486 1486 1487 1487 1487 1487 1487 1488 1488 1489 1489 1489 1489 1489 1490 1490 1490 1491 1491 1491 1493 1493 1494